(268492) = 2005 YE25

Discovered at Kitt Peak on 2005-12-24 by Spacewatch.

Orbit

Orbit type: Main Belt

Note: WebGL enabled browser required.

epoch2024-03-31.0
epoch JD2460400.5
perihelion date2020-12-31.06279
perihelion JD2459214.56279
argument of perihelion (°)161.01340
ascending node (°)126.01796
inclination (°)2.44633
eccentricity0.0172652
perihelion distance (AU)2.6010108
Tisserand w.r.t. Jupiter3.4
ΔV w.r.t. Earth (km/sec)10.1
semimajor axis (AU)2.6467068
mean anomaly (°)271.46059
mean daily motion (°/day)0.22889960
aphelion distance (AU)2.692
period (years)4.31
P-vector [x]0.29313479
P-vector [y]-0.88260948
P-vector [z]-0.36752211
Q-vector [x]0.95544759
Q-vector [y]0.28431573
Q-vector [z]0.07927462
absolute magnitude17.19
phase slope0.15
uncertainty0
referenceMPEC 2024-F50
observations used309
oppositions16
arc length (days)8076
first opposition used2002
last opposition used2024
residual rms (arc-secs)0.77
perturbers coarse indicatorM-v
perturbers precise indicator003Ek
first observation date used2002-02-07.0
last observation date used2024-03-19.0
computer nameMPCLINUX
JD of orbit computation2456639.532845
perihelion JD uncertainty (days)7.1108E-04
argument of perihelion uncertainty (°)1.9761E-04
ascending node uncertainty (°)1.1260E-04
inclination uncertainty (°)3.5252E-06
eccentricity uncertainty 3.0177E-08
perihelion distance uncertainty (AU)8.4477E-08
Minimum Orbit Intersection Distances (in AU)
for orbit epoch: 2460400.5, reference: E2024-G95
Mercury2.1412
Venus1.8742
Earth1.58456
Mars1.00584
Jupiter2.30392
Saturn6.35196
Uranus15.7677
Neptune27.1617

Observations

316 total observations over interval: 2002 02 07.40359 – 2024 03 19.511978
These data are available for download (format description).

Date (UT) J2000 RA J2000 Dec Magn Location Ref
2002 02 07.40359 10 13 11.57 +12 26 06.4 21.2 V 291 – LPL/Spacewatch II MPS 168862
2002 02 07.42461 10 13 10.49 +12 26 13.7 21.1 V 291 – LPL/Spacewatch II MPS 168862
2002 02 07.44574 10 13 09.41 +12 26 20.8 21.1 V 291 – LPL/Spacewatch II MPS 168862
2002 02 12.32586 10 09 01.19 +12 54 13.2 20.6   704 – Lincoln Laboratory ETS, New Mexico MPS 168862
2002 02 12.34000 10 09 00.31 +12 54 17.7 20.4   704 – Lincoln Laboratory ETS, New Mexico MPS 168862
2002 02 12.35418 10 08 59.62 +12 54 24.1 19.9   704 – Lincoln Laboratory ETS, New Mexico MPS 168862
2002 02 12.36835 10 08 58.81 +12 54 28.2 20.5   704 – Lincoln Laboratory ETS, New Mexico MPS 168862
2002 03 05.12057 09 51 06.63 +14 46 32.7 21.8 V 691 – Steward Observatory, Kitt Peak-Spacewatch MPS 168862
2002 03 05.14274 09 51 05.57 +14 46 39.2 21.4 V 691 – Steward Observatory, Kitt Peak-Spacewatch MPS 168862
2002 03 05.16475 09 51 04.54 +14 46 45.3 21.3 V 691 – Steward Observatory, Kitt Peak-Spacewatch MPS 168862
2004 10 10.278597 00 42 43.456 +00 41 03.11 20.62 V 645 – Apache Point-Sloan Digital Sky Survey MPS 390488
2004 10 10.282069 00 42 43.274 +00 41 01.99 21.42   645 – Apache Point-Sloan Digital Sky Survey MPS 390488
2004 10 14.16490 00 39 34.43 +00 20 44.5 21.2 V 691 – Steward Observatory, Kitt Peak-Spacewatch MPS 168862
2004 10 14.19608 00 39 32.87 +00 20 35.2 20.9 V 691 – Steward Observatory, Kitt Peak-Spacewatch MPS 168862
2004 10 14.22755 00 39 31.40 +00 20 26.1 21.5 V 691 – Steward Observatory, Kitt Peak-Spacewatch MPS 168862
2004 10 20.317627 00 34 53.489 -00 08 12.71 21.04 V 645 – Apache Point-Sloan Digital Sky Survey MPS 390488
2004 10 20.321099 00 34 53.331 -00 08 13.65 21.78   645 – Apache Point-Sloan Digital Sky Survey MPS 390488
2004 11 05.219277 00 25 47.991 -00 57 58.72 21.37 V 645 – Apache Point-Sloan Digital Sky Survey MPS 390488
2004 11 05.222749 00 25 47.912 -00 57 59.19 22.12   645 – Apache Point-Sloan Digital Sky Survey MPS 390488
2005 12 24.40295 08 15 39.28 +18 50 44.2   691 – Steward Observatory, Kitt Peak-Spacewatch MPS 156700
2005 12 24.42026 08 15 38.56 +18 50 47.2   691 – Steward Observatory, Kitt Peak-Spacewatch MPS 156700
2005 12 24.43757 08 15 37.83 +18 50 49.8   691 – Steward Observatory, Kitt Peak-Spacewatch MPS 156700
2005 12 25.40742 08 14 58.88 +18 53 32.3 20.7 V G96 – Mt. Lemmon Survey MPS 156700
2005 12 25.41396 08 14 58.59 +18 53 33.6 21.4 V G96 – Mt. Lemmon Survey MPS 156700
2005 12 25.42045 08 14 58.30 +18 53 34.7 21.1 V G96 – Mt. Lemmon Survey MPS 156700
2005 12 25.42693 08 14 58.05 +18 53 36.3 20.8 V G96 – Mt. Lemmon Survey MPS 156700
2005 12 28.41200 08 12 49.77 +19 02 24.5 21.0 V 691 – Steward Observatory, Kitt Peak-Spacewatch MPS 156700
2005 12 28.42930 08 12 48.97 +19 02 28.1 20.8 V 691 – Steward Observatory, Kitt Peak-Spacewatch MPS 156700
2005 12 28.44660 08 12 48.15 +19 02 30.8 21.0 V 691 – Steward Observatory, Kitt Peak-Spacewatch MPS 156700
2006 01 05.33562 08 06 17.34 +19 28 25.6 20.7 V 691 – Steward Observatory, Kitt Peak-Spacewatch MPS 157872
2006 01 05.35635 08 06 16.17 +19 28 30.1 20.9 V 691 – Steward Observatory, Kitt Peak-Spacewatch MPS 157872
2006 01 05.37706 08 06 15.02 +19 28 34.3 20.8 V 691 – Steward Observatory, Kitt Peak-Spacewatch MPS 157872
2006 01 09.31965 08 02 37.98 +19 42 29.0 21.0 V 691 – Steward Observatory, Kitt Peak-Spacewatch MPS 159079
2006 01 09.33694 08 02 36.93 +19 42 33.1 20.8 V 691 – Steward Observatory, Kitt Peak-Spacewatch MPS 159079
2006 01 09.35421 08 02 35.93 +19 42 36.6 21.4 V 691 – Steward Observatory, Kitt Peak-Spacewatch MPS 159079
2006 01 24.28942 07 48 05.11 +20 35 46.5 21.0 V G96 – Mt. Lemmon Survey MPS 160511
2006 01 24.29535 07 48 04.75 +20 35 47.7 20.5 V G96 – Mt. Lemmon Survey MPS 160511
2006 01 24.30126 07 48 04.39 +20 35 48.9 20.5 V G96 – Mt. Lemmon Survey MPS 160511
2006 01 24.30721 07 48 04.06 +20 35 50.1 20.7 V G96 – Mt. Lemmon Survey MPS 160511
2007 04 14.34779 15 03 10.47 -13 17 20.5 21.2 V 691 – Steward Observatory, Kitt Peak-Spacewatch MPS 206952
2007 04 14.36541 15 03 09.71 -13 17 16.9 21.2 V 691 – Steward Observatory, Kitt Peak-Spacewatch MPS 206952
2007 04 14.38303 15 03 08.96 -13 17 12.7 21.1 V 691 – Steward Observatory, Kitt Peak-Spacewatch MPS 206952
2007 04 18.32510 15 00 20.69 -13 02 38.4 21.1 V 691 – Steward Observatory, Kitt Peak-Spacewatch MPS 206952
2007 04 18.34271 15 00 19.85 -13 02 34.6 20.6 V 691 – Steward Observatory, Kitt Peak-Spacewatch MPS 206953
2007 04 18.36033 15 00 19.05 -13 02 30.1 21.2 V 691 – Steward Observatory, Kitt Peak-Spacewatch MPS 206953
2007 04 22.32640 14 57 14.06 -12 47 07.1 21.3 V 691 – Steward Observatory, Kitt Peak-Spacewatch MPS 208112
2007 04 22.34597 14 57 13.09 -12 47 02.6 20.9 V 691 – Steward Observatory, Kitt Peak-Spacewatch MPS 208112
2007 04 22.36556 14 57 12.11 -12 46 58.2 21.0 V 691 – Steward Observatory, Kitt Peak-Spacewatch MPS 208112
2007 04 26.30474 14 53 56.46 -12 31 15.1 21.2 V 691 – Steward Observatory, Kitt Peak-Spacewatch MPS 208112
2007 04 26.32235 14 53 55.48 -12 31 10.4 21.3 V 691 – Steward Observatory, Kitt Peak-Spacewatch MPS 208112
2007 04 26.33997 14 53 54.57 -12 31 06.6 21.2 V 691 – Steward Observatory, Kitt Peak-Spacewatch MPS 208112
2007 05 12.29745 14 39 57.06 -11 28 43.0 20.5 V G96 – Mt. Lemmon Survey MPS 208977
2007 05 12.30367 14 39 56.73 -11 28 41.1 20.3 V G96 – Mt. Lemmon Survey MPS 208977
2007 05 12.30993 14 39 56.41 -11 28 39.7 20.4 V G96 – Mt. Lemmon Survey MPS 208977
2007 05 12.31616 14 39 56.08 -11 28 38.8 20.4 V G96 – Mt. Lemmon Survey MPS 208977
2008 08 20.39791 22 47 15.34 -09 46 16.0 20.8 V 691 – Steward Observatory, Kitt Peak-Spacewatch MPS 254515
2008 08 20.41549 22 47 14.45 -09 46 21.9 20.8 V 691 – Steward Observatory, Kitt Peak-Spacewatch MPS 254515
2008 08 20.43309 22 47 13.57 -09 46 28.8 21.4 V 691 – Steward Observatory, Kitt Peak-Spacewatch MPS 254515
2010 03 06.546424 05 21 45.386 +22 03 42.62   C51 – WISE MPS 903852
2010 03 06.678727 05 21 51.679 +22 03 56.02   C51 – WISE MPS 903852
2010 03 06.811031 05 21 57.955 +22 04 08.87   C51 – WISE MPS 903852
2010 03 07.009551 05 22 07.346 +22 04 30.04   C51 – WISE MPS 903852
2010 03 07.075766 05 22 10.668 +22 04 35.83   C51 – WISE MPS 903852
2010 03 07.141855 05 22 13.788 +22 04 41.70   C51 – WISE MPS 903852
2010 03 07.208071 05 22 16.956 +22 04 49.80   C51 – WISE MPS 903852
2010 03 07.274159 05 22 20.321 +22 04 55.34   C51 – WISE MPS 903852
2010 03 07.406463 05 22 26.534 +22 05 08.20   C51 – WISE MPS 903852
2010 03 07.671198 05 22 39.530 +22 05 32.68   C51 – WISE MPS 903852
2010 03 07.803502 05 22 46.034 +22 05 48.01   C51 – WISE MPS 903852
2011 03 06.38087 12 58 26.18 -02 49 35.7 21.1 V 691 – Steward Observatory, Kitt Peak-Spacewatch MPS 373434
2011 03 06.39856 12 58 25.59 -02 49 30.5 20.8 V 691 – Steward Observatory, Kitt Peak-Spacewatch MPS 373434
2011 03 06.41623 12 58 25.01 -02 49 26.1 21.0 V 691 – Steward Observatory, Kitt Peak-Spacewatch MPS 373434
2011 03 14.35408 12 53 34.67 -02 09 24.6 20.4 V 691 – Steward Observatory, Kitt Peak-Spacewatch MPS 374802
2011 03 14.37177 12 53 33.89 -02 09 18.0 20.6 V 691 – Steward Observatory, Kitt Peak-Spacewatch MPS 374802
2011 03 14.38945 12 53 33.17 -02 09 12.8 20.6 V 691 – Steward Observatory, Kitt Peak-Spacewatch MPS 374802
2011 04 05.34666 12 36 04.94 -00 02 21.5 21.0 V 291 – LPL/Spacewatch II MPS 378542
2011 04 05.35058 12 36 04.72 -00 02 20.7 20.9 V 291 – LPL/Spacewatch II MPS 378542
2011 04 05.35967 12 36 04.26 -00 02 17.1 21.1 V 291 – LPL/Spacewatch II MPS 378542
2011 04 28.20955 12 20 02.76 +01 36 59.2 20.9 V G96 – Mt. Lemmon Survey MPS 381106
2011 04 28.21482 12 20 02.61 +01 36 59.7 21.2 V G96 – Mt. Lemmon Survey MPS 381106
2011 04 28.22001 12 20 02.43 +01 37 00.8 21.1 V G96 – Mt. Lemmon Survey MPS 381106
2011 04 28.22531 12 20 02.29 +01 37 02.4 20.9 V G96 – Mt. Lemmon Survey MPS 381106
2012 06 14.43647 20 44 19.64 -17 15 04.6 21.8 V G96 – Mt. Lemmon Survey MPS 427226
2012 06 14.44101 20 44 19.50 -17 15 04.6 21.8 V G96 – Mt. Lemmon Survey MPS 427226
2012 06 14.44552 20 44 19.46 -17 15 05.7 22.3 V G96 – Mt. Lemmon Survey MPS 427226
2012 06 14.45005 20 44 19.35 -17 15 05.7 22.0 V G96 – Mt. Lemmon Survey MPS 427226
2012 08 04.33720 20 09 16.368 -20 02 09.18 20.3 i F51 – Pan-STARRS 1, Haleakala MPS 429299
